QPF
0.00 0.00 0.00 0.00 0.00 0.01 0.01 0.01 0.00 0.00 0.01 0.01 0.02 0.02 0.01 0.02 0.02 0.02 0.03 0.04 0.06 0.07 0.06 0.05 0.06 0.03 0.02 0.01 0.01 0.01 0.01 0.01 0.01 0.01 0.01 0.02 0.03 0.03 0.03 0.03 0.04 0.07 0.06 0.04
0.00 0.01 0.00 0.00 0.00 0.00 0.00 0.01 0.01 0.00 0.00 0.01 0.02 0.02 0.02 0.01 0.01 0.01 0.02 0.03 0.04 0.05 0.05 0.05 0.04 0.03 0.02 0.02 0.02 0.01 0.01 0.01 0.01 0.01 0.01 0.02 0.02 0.02 0.03 0.04 0.05 0.04 0.03 0.04
0.00 0.00 0.00 0.00 0.00 0.00 0.00 0.01 0.01 0.01 0.01 0.02 0.03 0.04 0.03 0.02 0.02 0.01 0.01 0.01 0.02 0.03 0.03 0.02 0.02 0.02 0.02 0.02 0.02 0.01 0.01 0.01 0.01 0.01 0.01 0.01 0.01 0.02 0.03 0.04 0.03 0.03 0.03 0.04
0.00 0.00 0.00 0.00 0.00 0.00 0.00 0.02 0.02 0.01 0.01 0.02 0.04 0.06 0.06 0.04 0.03 0.02 0.01 0.01 0.01 0.02 0.02 0.01 0.02 0.02 0.02 0.02 0.01 0.01 0.01 0.01 0.00 0.01 0.01 0.01 0.01 0.01 0.02 0.02 0.03 0.03 0.04 0.05
0.00 0.00 0.00 0.00 0.00 0.00 0.01 0.03 0.02 0.01 0.01 0.03 0.04 0.05 0.05 0.04 0.03 0.02 0.01 0.01 0.01 0.02 0.01 0.01 0.01 0.01 0.01 0.01 0.01 0.00 0.00 0.00 0.00 0.00 0.00 0.00 0.01 0.01 0.01 0.02 0.03 0.03 0.05 0.06
0.00 0.00 0.00 0.00 0.00 0.00 0.01 0.02 0.01 0.01 0.01 0.03 0.05 0.03 0.02 0.02 0.02 0.02 0.02 0.02 0.02 0.02 0.01 0.01 0.01 0.00 0.01 0.01 0.00 0.00 0.00 0.00 0.00 0.00 0.00 0.00 0.00 0.01 0.01 0.02 0.02 0.02 0.04 0.05
0.00 0.00 0.00 0.00 0.00 0.00 0.01 0.02 0.03 0.02 0.02 0.02 0.02 0.01 0.03 0.02 0.02 0.02 0.02 0.02 0.02 0.02 0.01 0.01 0.00 0.00 0.00 0.01 0.00 0.00 0.00 0.00 0.00 0.00 0.00 0.00 0.00 0.01 0.01 0.02 0.02 0.03 0.03 0.05
0.00 0.00 0.00 0.00 0.00 0.00 0.01 0.01 0.02 0.02 0.01 0.01 0.01 0.02 0.03 0.02 0.02 0.02 0.02 0.01 0.01 0.02 0.01 0.01 0.00 0.00 0.00 0.01 0.00 0.00 0.00 0.00 0.00 0.00 0.00 0.00 0.00 0.01 0.01 0.02 0.02 0.03 0.03 0.03
0.00 0.00 0.00 0.00 0.00 0.00 0.01 0.01 0.01 0.01 0.01 0.02 0.02 0.03 0.03 0.03 0.02 0.02 0.01 0.01 0.01 0.01 0.01 0.01 0.01 0.01 0.00 0.00 0.00 0.00 0.00 0.00 0.00 0.00 0.00 0.01 0.01 0.01 0.01 0.01 0.01 0.02 0.03 0.03
0.00 0.00 0.00 0.00 0.00 0.00 0.00 0.00 0.00 0.00 0.01 0.02 0.03 0.04 0.04 0.02 0.03 0.01 0.01 0.02 0.02 0.02 0.02 0.02 0.02 0.01 0.00 0.00 0.00 0.00 0.00 0.00 0.00 0.00 0.00 0.01 0.01 0.00 0.00 0.01 0.01 0.02 0.02 0.02
0.00 0.00 0.00 0.00 0.00 0.00 0.00 0.00 0.00 0.00 0.00 0.01 0.02 0.03 0.03 0.01 0.01 0.01 0.01 0.02 0.03 0.03 0.03 0.02 0.01 0.01 0.00 0.00 0.00 0.00 0.01 0.00 0.01 0.00 0.01 0.01 0.01 0.01 0.01 0.01 0.01 0.01 0.02 0.02
0.00 0.00 0.00 0.00 0.00 0.00 0.00 0.00 0.00 0.00 0.00 0.00 0.01 0.03 0.04 0.03 0.02 0.01 0.02 0.01 0.02 0.03 0.04 0.02 0.01 0.01 0.01 0.01 0.01 0.01 0.02 0.01 0.01 0.01 0.01 0.01 0.02 0.03 0.02 0.02 0.02 0.02 0.02 0.01
0.00 0.00 0.00 0.00 0.00 0.00 0.00 0.00 0.00 0.00 0.00 0.00 0.01 0.02 0.05 0.05 0.02 0.01 0.01 0.01 0.01 0.01 0.01 0.01 0.01 0.01 0.02 0.02 0.03 0.03 0.03 0.03 0.02 0.01 0.01 0.02 0.03 0.03 0.03 0.03 0.04 0.04 0.03 0.02
0.00 0.00 0.00 0.00 0.00 0.00 0.00 0.00 0.00 0.00 0.00 0.00 0.01 0.01 0.01 0.01 0.01 0.01 0.01 0.01 0.01 0.01 0.01 0.01 0.01 0.01 0.01 0.02 0.04 0.04 0.04 0.04 0.04 0.03 0.03 0.03 0.02 0.02 0.02 0.02 0.02 0.03 0.03 0.02
0.00 0.00 0.00 0.00 0.00 0.00 0.00 0.00 0.00 0.00 0.00 0.00 0.01 0.01 0.01 0.01 0.01 0.01 0.02 0.02 0.02 0.02 0.01 0.01 0.01 0.01 0.01 0.01 0.01 0.01 0.02 0.03 0.04 0.05 0.05 0.04 0.02 0.01 0.01 0.01 0.01 0.01 0.02 0.02
0.00 0.00 0.00 0.00 0.00 0.00 0.00 0.00 0.00 0.00 0.00 0.00 0.01 0.01 0.01 0.01 0.01 0.01 0.01 0.01 0.02 0.02 0.02 0.01 0.01 0.01 0.01 0.01 0.01 0.01 0.01 0.01 0.02 0.04 0.05 0.04 0.03 0.02 0.01 0.01 0.01 0.01 0.02 0.02
0.00 0.00 0.00 0.00 0.00 0.00 0.00 0.00 0.00 0.00 0.00 0.00 0.00 0.00 0.00 0.00 0.00 0.00 0.01 0.01 0.01 0.02 0.03 0.02 0.02 0.01 0.01 0.02 0.02 0.02 0.01 0.01 0.02 0.02 0.02 0.02 0.02 0.02 0.01 0.01 0.01 0.01 0.01 0.02
0.00 0.00 0.00 0.00 0.00 0.00 0.00 0.00 0.00 0.00 0.01 0.01 0.01 0.01 0.01 0.00 0.00 0.00 0.00 0.01 0.01 0.01 0.01 0.02 0.02 0.02 0.02 0.02 0.02 0.02 0.02 0.02 0.02 0.02 0.02 0.01 0.02 0.02 0.02 0.03 0.01 0.01 0.01 0.01
0.00 0.00 0.00 0.01 0.01 0.01 0.00 0.00 0.00 0.00 0.01 0.01 0.01 0.01 0.01 0.01 0.01 0.01 0.01 0.01 0.01 0.01 0.01 0.01 0.01 0.02 0.02 0.02 0.01 0.01 0.01 0.02 0.03 0.03 0.03 0.02 0.02 0.02 0.03 0.03 0.03 0.03 0.02 0.01
0.00 0.00 0.00 0.00 0.01 0.01 0.01 0.01 0.00 0.00 0.01 0.01 0.01 0.01 0.01 0.01 0.01 0.02 0.02 0.02 0.02 0.02 0.02 0.02 0.02 0.02 0.02 0.02 0.02 0.02 0.02 0.02 0.01 0.02 0.02 0.02 0.03 0.03 0.03 0.04 0.04 0.05 0.05 0.04
0.00 0.00 0.00 0.01 0.01 0.00 0.01 0.01 0.01 0.01 0.01 0.01 0.01 0.00 0.01 0.01 0.01 0.01 0.02 0.02 0.04 0.06 0.05 0.05 0.03 0.02 0.02 0.02 0.02 0.03 0.03 0.02 0.02 0.02 0.02 0.02 0.02 0.03 0.03 0.04 0.05 0.05 0.06 0.06
0.01 0.01 0.00 0.01 0.01 0.01 0.02 0.02 0.02 0.01 0.01 0.01 0.01 0.01 0.01 0.01 0.01 0.01 0.02 0.02 0.02 0.03 0.04 0.05 0.05 0.04 0.02 0.01 0.01 0.01 0.02 0.02 0.02 0.02 0.03 0.03 0.02 0.02 0.02 0.03 0.03 0.04 0.05 0.06
0.01 0.01 0.01 0.01 0.01 0.01 0.01 0.01 0.02 0.02 0.02 0.02 0.01 0.01 0.01 0.01 0.01 0.01 0.01 0.02 0.02 0.01 0.01 0.01 0.01 0.01 0.01 0.01 0.01 0.02 0.02 0.03 0.03 0.03 0.04 0.04 0.03 0.03 0.03 0.03 0.03 0.03 0.05 0.07
0.02 0.01 0.01 0.02 0.01 0.01 0.01 0.02 0.01 0.01 0.02 0.02 0.03 0.02 0.01 0.01 0.01 0.01 0.02 0.02 0.02 0.01 0.00 0.00 0.01 0.01 0.01 0.01 0.02 0.02 0.02 0.03 0.04 0.04 0.04 0.04 0.03 0.04 0.05 0.05 0.05 0.06 0.06 0.08
0.01 0.01 0.01 0.02 0.02 0.02 0.01 0.02 0.03 0.02 0.02 0.02 0.03 0.04 0.04 0.02 0.01 0.01 0.02 0.02 0.02 0.01 0.01 0.00 0.01 0.01 0.01 0.01 0.01 0.02 0.02 0.03 0.04 0.04 0.05 0.05 0.05 0.05 0.06 0.06 0.06 0.05 0.06 0.07
0.01 0.01 0.01 0.01 0.01 0.01 0.01 0.02 0.02 0.03 0.03 0.03 0.03 0.02 0.02 0.02 0.01 0.02 0.03 0.05 0.04 0.03 0.02 0.02 0.02 0.01 0.01 0.01 0.01 0.02 0.02 0.03 0.04 0.05 0.05 0.05 0.05 0.04 0.04 0.04 0.04 0.04 0.04 0.04
MSLP
1004.62 1005.07 1005.37 1005.55 1005.67 1005.85 1006.15 1006.66 1007.37 1008.23 1009.15 1009.99 1010.65 1011.04 1011.13 1010.91 1010.48 1009.94 1009.40 1008.96 1008.70 1008.63 1008.76 1009.04 1009.41 1009.82 1010.26 1010.70 1011.15 1011.64 1012.18 1012.78 1013.42 1014.07 1014.68 1015.22 1015.64 1015.95 1016.14 1016.25 1016.34 1016.44 1016.59 1016.81
1005.38 1005.65 1005.73 1005.69 1005.64 1005.69 1005.94 1006.46 1007.23 1008.20 1009.24 1010.23 1011.02 1011.54 1011.74 1011.63 1011.31 1010.89 1010.46 1010.14 1009.97 1009.99 1010.16 1010.46 1010.80 1011.16 1011.51 1011.84 1012.19 1012.57 1013.02 1013.54 1014.11 1014.72 1015.29 1015.80 1016.19 1016.46 1016.61 1016.68 1016.71 1016.77 1016.87 1017.05
1005.92 1005.98 1005.84 1005.61 1005.41 1005.37 1005.61 1006.16 1007.02 1008.10 1009.26 1010.35 1011.25 1011.85 1012.13 1012.10 1011.87 1011.53 1011.22 1011.01 1010.97 1011.10 1011.37 1011.71 1012.08 1012.42 1012.72 1012.97 1013.22 1013.50 1013.85 1014.28 1014.79 1015.35 1015.89 1016.37 1016.74 1016.99 1017.11 1017.15 1017.15 1017.15 1017.20 1017.33
1006.19 1006.05 1005.74 1005.35 1005.06 1004.99 1005.24 1005.87 1006.83 1008.01 1009.26 1010.44 1011.38 1012.02 1012.32 1012.32 1012.13 1011.86 1011.64 1011.55 1011.64 1011.89 1012.28 1012.73 1013.15 1013.52 1013.79 1014.00 1014.17 1014.36 1014.61 1014.97 1015.40 1015.90 1016.41 1016.87 1017.23 1017.47 1017.58 1017.60 1017.56 1017.52 1017.53 1017.59
1006.22 1005.92 1005.46 1004.98 1004.65 1004.60 1004.92 1005.64 1006.71 1007.98 1009.31 1010.52 1011.47 1012.08 1012.36 1012.33 1012.14 1011.90 1011.74 1011.75 1011.96 1012.36 1012.87 1013.43 1013.95 1014.37 1014.66 1014.84 1014.96 1015.07 1015.25 1015.52 1015.89 1016.33 1016.80 1017.24 1017.60 1017.83 1017.94 1017.95 1017.90 1017.83 1017.78 1017.79
1006.08 1005.65 1005.09 1004.58 1004.26 1004.28 1004.70 1005.53 1006.70 1008.05 1009.41 1010.60 1011.51 1012.06 1012.26 1012.17 1011.94 1011.69 1011.57 1011.66 1011.97 1012.49 1013.14 1013.82 1014.43 1014.92 1015.24 1015.43 1015.52 1015.59 1015.70 1015.90 1016.20 1016.59 1017.03 1017.45 1017.80 1018.04 1018.16 1018.17 1018.11 1018.02 1017.94 1017.90
1005.83 1005.31 1004.71 1004.21 1003.95 1004.06 1004.59 1005.53 1006.78 1008.17 1009.52 1010.67 1011.49 1011.94 1012.03 1011.85 1011.55 1011.29 1011.18 1011.32 1011.72 1012.34 1013.10 1013.88 1014.59 1015.15 1015.52 1015.73 1015.82 1015.86 1015.92 1016.07 1016.33 1016.68 1017.08 1017.48 1017.83 1018.07 1018.21 1018.23 1018.17 1018.08 1017.99 1017.94
1005.55 1004.97 1004.38 1003.92 1003.74 1003.96 1004.59 1005.60 1006.89 1008.27 1009.57 1010.63 1011.34 1011.66 1011.64 1011.37 1011.02 1010.72 1010.63 1010.80 1011.25 1011.95 1012.79 1013.66 1014.44 1015.07 1015.49 1015.73 1015.84 1015.88 1015.93 1016.06 1016.28 1016.60 1016.98 1017.37 1017.71 1017.97 1018.12 1018.16 1018.12 1018.04 1017.96 1017.90
1005.29 1004.69 1004.12 1003.73 1003.64 1003.93 1004.63 1005.67 1006.94 1008.26 1009.46 1010.40 1010.98 1011.18 1011.06 1010.72 1010.33 1010.03 1009.94 1010.14 1010.64 1011.38 1012.28 1013.20 1014.03 1014.71 1015.18 1015.47 1015.61 1015.67 1015.74 1015.87 1016.10 1016.41 1016.78 1017.16 1017.51 1017.77 1017.93 1017.99 1017.98 1017.92 1017.86 1017.81
1005.04 1004.46 1003.94 1003.62 1003.60 1003.94 1004.64 1005.65 1006.84 1008.04 1009.10 1009.89 1010.34 1010.44 1010.25 1009.88 1009.49 1009.21 1009.16 1009.41 1009.94 1010.71 1011.63 1012.57 1013.43 1014.14 1014.65 1014.98 1015.17 1015.29 1015.41 1015.57 1015.82 1016.14 1016.52 1016.91 1017.25 1017.52 1017.69 1017.77 1017.78 1017.74 1017.70 1017.68
1004.80 1004.27 1003.83 1003.57 1003.59 1003.93 1004.59 1005.49 1006.52 1007.54 1008.42 1009.04 1009.37 1009.39 1009.18 1008.83 1008.50 1008.30 1008.33 1008.63 1009.20 1009.99 1010.91 1011.85 1012.70 1013.42 1013.96 1014.34 1014.59 1014.78 1014.97 1015.20 1015.50 1015.85 1016.25 1016.64 1016.99 1017.26 1017.43 1017.51 1017.53 1017.51 1017.48 1017.48
1004.54 1004.09 1003.73 1003.54 1003.58 1003.88 1004.42 1005.15 1005.97 1006.77 1007.43 1007.88 1008.09 1008.07 1007.88 1007.61 1007.39 1007.32 1007.45 1007.84 1008.46 1009.27 1010.17 1011.08 1011.92 1012.63 1013.19 1013.61 1013.93 1014.20 1014.47 1014.78 1015.14 1015.55 1015.97 1016.37 1016.72 1016.98 1017.14 1017.22 1017.23 1017.22 1017.19 1017.19
1004.25 1003.91 1003.64 1003.50 1003.54 1003.75 1004.14 1004.66 1005.22 1005.76 1006.19 1006.46 1006.57 1006.53 1006.40 1006.26 1006.20 1006.29 1006.57 1007.06 1007.74 1008.56 1009.45 1010.32 1011.12 1011.81 1012.37 1012.83 1013.22 1013.57 1013.94 1014.33 1014.76 1015.22 1015.67 1016.08 1016.42 1016.66 1016.81 1016.87 1016.87 1016.84 1016.81 1016.81
1003.94 1003.72 1003.55 1003.45 1003.46 1003.57 1003.77 1004.04 1004.32 1004.58 1004.77 1004.88 1004.90 1004.87 1004.83 1004.84 1004.96 1005.24 1005.68 1006.29 1007.04 1007.87 1008.73 1009.56 1010.31 1010.97 1011.53 1012.02 1012.46 1012.90 1013.35 1013.83 1014.33 1014.83 1015.31 1015.72 1016.05 1016.27 1016.39 1016.44 1016.42 1016.38 1016.34 1016.32
1003.65 1003.54 1003.45 1003.38 1003.34 1003.32 1003.32 1003.33 1003.33 1003.31 1003.27 1003.22 1003.17 1003.16 1003.23 1003.40 1003.71 1004.18 1004.78 1005.51 1006.32 1007.17 1008.00 1008.77 1009.47 1010.10 1010.65 1011.16 1011.66 1012.16 1012.69 1013.24 1013.80 1014.35 1014.85 1015.26 1015.58 1015.79 1015.89 1015.92 1015.89 1015.83 1015.78 1015.76
1003.43 1003.42 1003.38 1003.30 1003.19 1003.02 1002.81 1002.56 1002.29 1002.02 1001.77 1001.58 1001.47 1001.49 1001.65 1001.98 1002.47 1003.10 1003.86 1004.69 1005.55 1006.40 1007.20 1007.93 1008.58 1009.17 1009.71 1010.24 1010.78 1011.35 1011.94 1012.56 1013.17 1013.75 1014.26 1014.69 1015.00 1015.20 1015.30 1015.32 1015.30 1015.25 1015.21 1015.18
1003.35 1003.36 1003.32 1003.20 1002.99 1002.66 1002.24 1001.75 1001.23 1000.73 1000.30 999.99 999.84 999.88 1000.13 1000.59 1001.22 1002.00 1002.87 1003.78 1004.68 1005.52 1006.29 1006.98 1007.59 1008.16 1008.70 1009.25 1009.83 1010.44 1011.10 1011.77 1012.43 1013.04 1013.57 1014.01 1014.33 1014.54 1014.66 1014.70 1014.71 1014.69 1014.67 1014.67
1003.41 1003.39 1003.29 1003.07 1002.72 1002.21 1001.59 1000.88 1000.15 999.46 998.88 998.47 998.29 998.35 998.67 999.22 999.97 1000.85 1001.80 1002.75 1003.67 1004.50 1005.25 1005.90 1006.49 1007.04 1007.59 1008.17 1008.80 1009.47 1010.18 1010.90 1011.60 1012.25 1012.81 1013.27 1013.62 1013.86 1014.02 1014.11 1014.17 1014.21 1014.25 1014.29
1003.61 1003.47 1003.25 1002.88 1002.35 1001.66 1000.84 999.93 999.02 998.18 997.49 997.01 996.81 996.89 997.26 997.88 998.69 999.63 1000.62 1001.59 1002.51 1003.33 1004.05 1004.69 1005.28 1005.84 1006.42 1007.04 1007.73 1008.46 1009.23 1010.00 1010.75 1011.43 1012.03 1012.52 1012.91 1013.21 1013.44 1013.61 1013.75 1013.87 1013.99 1014.09
1003.86 1003.56 1003.15 1002.59 1001.86 1000.97 999.97 998.89 997.84 996.89 996.12 995.61 995.40 995.50 995.90 996.56 997.41 998.37 999.37 1000.34 1001.24 1002.05 1002.77 1003.40 1004.00 1004.60 1005.24 1005.92 1006.67 1007.47 1008.30 1009.13 1009.93 1010.65 1011.29 1011.83 1012.28 1012.65 1012.95 1013.22 1013.46 1013.68 1013.89 1014.07
1004.10 1003.59 1002.96 1002.18 1001.25 1000.17 999.00 997.79 996.63 995.61 994.80 994.28 994.07 994.19 994.61 995.29 996.15 997.11 998.10 999.05 999.94 1000.74 1001.46 1002.11 1002.75 1003.40 1004.10 1004.86 1005.69 1006.57 1007.46 1008.35 1009.19 1009.97 1010.65 1011.24 1011.75 1012.19 1012.58 1012.94 1013.28 1013.60 1013.90 1014.17
1004.22 1003.51 1002.66 1001.67 1000.54 999.29 997.97 996.66 995.44 994.39 993.57 993.06 992.88 993.02 993.46 994.14 994.99 995.94 996.91 997.84 998.71 999.50 1000.23 1000.92 1001.61 1002.33 1003.10 1003.94 1004.85 1005.79 1006.76 1007.70 1008.59 1009.40 1010.13 1010.77 1011.33 1011.84 1012.30 1012.75 1013.17 1013.59 1013.97 1014.31
1004.17 1003.27 1002.24 1001.07 999.77 998.39 996.97 995.60 994.35 993.29 992.51 992.03 991.88 992.05 992.50 993.19 994.04 994.96 995.90 996.82 997.67 998.46 999.21 999.93 1000.67 1001.45 1002.30 1003.21 1004.18 1005.19 1006.21 1007.19 1008.12 1008.96 1009.72 1010.40 1011.01 1011.56 1012.09 1012.59 1013.09 1013.57 1014.02 1014.42
1003.91 1002.89 1001.72 1000.42 999.02 997.55 996.08 994.69 993.44 992.42 991.68 991.25 991.15 991.36 991.84 992.54 993.37 994.28 995.20 996.09 996.93 997.72 998.48 999.23 1000.01 1000.84 1001.74 1002.70 1003.72 1004.78 1005.82 1006.83 1007.78 1008.65 1009.43 1010.12 1010.75 1011.34 1011.90 1012.44 1012.97 1013.49 1013.98 1014.41
1003.46 1002.39 1001.15 999.79 998.34 996.84 995.37 993.99 992.79 991.83 991.16 990.80 990.77 991.03 991.54 992.25 993.08 993.98 994.88 995.76 996.58 997.37 998.13 998.89 999.69 1000.54 1001.46 1002.44 1003.48 1004.54 1005.60 1006.61 1007.56 1008.43 1009.22 1009.92 1010.56 1011.15 1011.72 1012.27 1012.81 1013.34 1013.83 1014.27
1002.87 1001.80 1000.57 999.21 997.77 996.30 994.87 993.56 992.44 991.56 990.98 990.70 990.74 991.06 991.62 992.36 993.20 994.10 994.99 995.85 996.66 997.43 998.18 998.93 999.71 1000.55 1001.45 1002.42 1003.44 1004.49 1005.52 1006.52 1007.45 1008.31 1009.09 1009.78 1010.42 1011.00 1011.55 1012.09 1012.61 1013.12 1013.59 1014.01
Thickness
5828 5810 5799 5806 5813 5813 5810 5802 5799 5809 5825 5815 5805 5802 5807 5814 5812 5809 5806 5805 5804 5804 5807 5808 5807 5805 5802 5799 5797 5794 5792 5791 5789 5786 5784 5782 5781 5781 5781 5781 5780 5779 5778 5776
5805 5800 5820 5828 5828 5822 5814 5803 5801 5812 5824 5814 5801 5801 5809 5814 5814 5814 5810 5807 5806 5804 5804 5805 5805 5804 5801 5798 5797 5795 5793 5792 5790 5788 5786 5785 5783 5782 5781 5781 5780 5779 5777 5775
5796 5812 5832 5828 5820 5814 5810 5804 5805 5805 5815 5814 5802 5790 5799 5810 5816 5817 5817 5815 5812 5809 5805 5805 5804 5802 5801 5799 5798 5797 5795 5793 5791 5790 5787 5785 5783 5781 5779 5778 5777 5777 5776 5775
5805 5824 5826 5820 5818 5817 5800 5820 5820 5814 5798 5783 5791 5762 5785 5799 5804 5810 5813 5813 5812 5813 5810 5807 5805 5803 5802 5801 5801 5798 5796 5794 5792 5790 5787 5783 5779 5775 5776 5777 5777 5776 5775 5774
5803 5821 5819 5815 5823 5827 5817 5829 5821 5814 5797 5782 5783 5766 5777 5795 5794 5803 5811 5815 5815 5816 5813 5810 5809 5807 5806 5804 5802 5799 5797 5795 5793 5791 5788 5784 5780 5779 5778 5777 5775 5775 5774 5773
5813 5830 5829 5828 5837 5838 5833 5820 5808 5797 5782 5762 5777 5767 5770 5789 5800 5807 5813 5817 5818 5818 5816 5813 5812 5809 5806 5805 5802 5800 5796 5794 5793 5791 5789 5785 5782 5779 5776 5775 5773 5772 5772 5771
5799 5815 5831 5837 5822 5826 5819 5786 5760 5755 5746 5754 5780 5774 5777 5807 5818 5818 5817 5818 5820 5820 5816 5812 5809 5806 5805 5804 5802 5799 5796 5793 5792 5791 5789 5787 5784 5781 5778 5776 5774 5772 5770 5769
5774 5779 5815 5830 5822 5810 5810 5789 5758 5743 5741 5755 5774 5770 5790 5820 5825 5826 5825 5824 5823 5820 5817 5815 5813 5810 5807 5805 5803 5800 5796 5793 5792 5790 5788 5787 5785 5783 5780 5778 5776 5774 5772 5771
5774 5780 5821 5834 5838 5825 5807 5794 5791 5766 5759 5750 5759 5777 5798 5818 5818 5819 5820 5821 5820 5820 5819 5818 5816 5813 5809 5807 5804 5801 5797 5794 5792 5791 5789 5786 5785 5784 5781 5780 5778 5775 5774 5772
5791 5782 5807 5828 5832 5829 5821 5808 5781 5763 5745 5738 5754 5765 5773 5794 5803 5810 5813 5815 5818 5821 5821 5818 5816 5814 5812 5810 5807 5803 5799 5795 5793 5791 5789 5788 5785 5784 5782 5780 5777 5775 5773 5772
5796 5777 5788 5805 5804 5803 5809 5801 5782 5764 5762 5741 5737 5756 5802 5801 5806 5807 5810 5815 5819 5820 5819 5818 5817 5815 5812 5809 5805 5801 5798 5795 5792 5791 5789 5787 5785 5783 5781 5778 5777 5775 5773 5771
5792 5772 5765 5787 5813 5825 5815 5804 5785 5765 5758 5754 5745 5759 5813 5811 5812 5811 5811 5815 5817 5818 5818 5817 5815 5812 5808 5805 5803 5799 5797 5795 5793 5791 5788 5786 5784 5781 5779 5777 5775 5774 5772 5770
5788 5765 5749 5757 5778 5801 5805 5807 5795 5778 5762 5751 5745 5762 5807 5808 5808 5810 5811 5812 5812 5813 5813 5812 5810 5808 5805 5803 5801 5798 5797 5795 5793 5790 5786 5783 5780 5779 5777 5776 5774 5772 5770 5767
5793 5762 5751 5746 5758 5779 5787 5797 5799 5779 5757 5754 5760 5770 5789 5797 5799 5802 5805 5808 5808 5807 5808 5807 5805 5803 5803 5802 5799 5796 5795 5794 5791 5788 5784 5780 5778 5776 5775 5774 5772 5770 5768 5765
5779 5757 5765 5770 5783 5789 5790 5793 5796 5787 5776 5766 5770 5774 5786 5795 5798 5801 5803 5803 5803 5802 5801 5801 5800 5799 5798 5797 5796 5795 5793 5791 5789 5785 5781 5779 5778 5775 5773 5771 5769 5768 5765 5763
5764 5754 5758 5763 5780 5784 5783 5791 5794 5792 5789 5782 5779 5779 5797 5799 5799 5797 5797 5798 5795 5796 5798 5798 5797 5796 5795 5794 5793 5791 5789 5787 5786 5782 5779 5777 5775 5772 5770 5768 5767 5764 5762 5760
5749 5745 5737 5738 5760 5768 5759 5780 5785 5783 5787 5784 5773 5782 5793 5791 5790 5791 5792 5793 5792 5792 5793 5793 5793 5793 5792 5792 5791 5787 5786 5784 5781 5778 5776 5774 5772 5769 5768 5766 5763 5761 5759 5757
5743 5734 5723 5726 5738 5729 5755 5788 5792 5782 5781 5786 5786 5789 5791 5789 5789 5791 5792 5790 5788 5789 5790 5789 5789 5789 5789 5788 5787 5785 5783 5779 5775 5772 5770 5770 5768 5766 5764 5762 5759 5758 5755 5752
5748 5732 5718 5711 5714 5727 5755 5776 5782 5772 5763 5779 5780 5782 5784 5786 5781 5779 5787 5789 5787 5786 5787 5787 5786 5785 5784 5782 5781 5778 5775 5772 5769 5767 5766 5765 5764 5762 5760 5757 5755 5754 5751 5749
5737 5731 5715 5707 5709 5710 5740 5772 5785 5773 5747 5772 5775 5774 5775 5774 5755 5761 5778 5782 5783 5783 5782 5781 5781 5779 5777 5775 5775 5770 5767 5764 5763 5762 5762 5762 5760 5758 5756 5754 5752 5750 5748 5746
5713 5711 5706 5702 5703 5716 5750 5770 5773 5741 5741 5766 5771 5771 5769 5763 5762 5767 5773 5775 5776 5775 5775 5775 5773 5771 5770 5769 5766 5761 5759 5758 5760 5759 5758 5757 5756 5754 5752 5750 5748 5746 5743 5740
5701 5697 5697 5694 5694 5708 5751 5757 5746 5743 5757 5761 5763 5765 5763 5763 5763 5764 5765 5766 5767 5766 5766 5766 5764 5762 5762 5762 5759 5754 5752 5755 5756 5754 5751 5750 5750 5748 5748 5744 5742 5740 5737 5734
5700 5704 5703 5703 5708 5730 5746 5749 5752 5754 5751 5753 5755 5757 5758 5756 5754 5755 5755 5756 5756 5757 5757 5757 5755 5753 5753 5753 5752 5747 5748 5750 5749 5746 5744 5743 5742 5741 5740 5737 5735 5732 5730 5727
5700 5709 5704 5703 5714 5726 5735 5742 5746 5748 5747 5750 5752 5752 5752 5747 5746 5747 5746 5745 5746 5746 5746 5746 5746 5744 5744 5745 5745 5744 5744 5744 5741 5738 5736 5735 5733 5733 5732 5731 5729 5727 5725 5723
5693 5696 5693 5695 5707 5715 5723 5730 5735 5739 5742 5743 5744 5745 5744 5741 5738 5737 5736 5736 5737 5737 5737 5738 5736 5735 5735 5737 5736 5737 5736 5734 5732 5730 5728 5726 5726 5725 5724 5724 5723 5722 5722 5721
5688 5688 5684 5686 5701 5702 5708 5720 5728 5728 5730 5731 5731 5731 5733 5732 5729 5729 5727 5727 5728 5727 5728 5727 5727 5727 5727 5728 5727 5728 5728 5726 5723 5720 5719 5718 5717 5717 5715 5714 5714 5715 5715 5714